Jonesboro, AR

4:28 PM CDT on August 18, 2017 (GMT -0500)
Jonesboro Municipal

Weather History for KJBR - October, 2014

Change the Weather History Date:

Sunday, October 12, 2014

  Actual Average Record
Temperature  
Mean Temperature 64 °F 62 °F  
Max Temperature 71 °F 74 °F 92 °F (1975)
Min Temperature 56 °F 51 °F 31 °F (1909)
Degree Days  
Heating Degree Days 1 4  
Month to date heating degree days 31 40  
Since 1 July heating degree days 40 58  
Cooling Degree Days 0 2  
Month to date cooling degree days 54 32  
Year to date cooling degree days 1774 1803  
Growing Degree Days 13 (Base 50)    
Moisture  
Dew Point 63 °F    
Average Humidity 92    
Maximum Humidity 100    
Minimum Humidity 84    
Precipitation  
Precipitation 0.27 in 0.13 in 1.75 in (1949)
Month to date precipitation 2.63 1.63  
Year to date precipitation 38.15 35.80  
Snow  
Snow 0.00 in 0.00 in 0.00 in (2002)
Month to date snowfall 0.0 0.0  
Since 1 July snowfall 0.0 0.0  
Since 1 September snowfall 0.0 0.0  
Snow Depth 0.00 in    
Sea Level Pressure  
Sea Level Pressure 29.92 in    
Wind  
Wind Speed 6 mph (SSE)    
Max Wind Speed 13 mph    
Max Gust Speed 17 mph    
Visibility 10 miles    
Events Rain    
T = Trace of Precipitation, MM = Missing Value Source: NWS Daily Summary

Daily Weather History Graph

Daily Weather History Graph

Search for Another Location

Airport or City:

Trip Planner

Search our weather history database for the weather conditions in past years. The results will help you decide how hot, cold, wet, or windy it might be!

Date:

Astronomy

Oct. 12, 2014 Rise Set
Actual Time 7:06 AM CDT 6:30 PM CDT
Civil Twilight 6:40 AM CDT 6:56 PM CDT
Nautical Twilight 6:11 AM CDT 7:26 PM CDT
Astronomical Twilight 5:41 AM CDT 7:55 PM CDT
Moon 9:55 PM CDT (10/12) 11:22 AM CDT (10/12)
Length of Visible Light 12h 15m
Length of Day
11h 24m
Waning Gibbous, 79% of the Moon is Illuminated
Oct 12
Waning Gibbous
Oct 15
Last Quarter
Oct 23
New
Oct 30
First Quarter
Nov 6
Full

Hourly Weather History & Observations

Time (CDT) Temp. Dew Point Humidity Pressure Visibility Wind Dir Wind Speed Gust Speed Precip Events Conditions
12:53 AM 55.9 °F 55.9 °F 100% 30.02 in 10.0 mi East 4.6 mph - N/A   Overcast
1:53 AM 55.9 °F 55.9 °F 100% 30.01 in 10.0 mi East 6.9 mph - N/A   Overcast
2:53 AM 55.9 °F 55.9 °F 100% 30.00 in 10.0 mi East 4.6 mph - N/A   Overcast
3:53 AM 55.4 °F 55.4 °F 100% 29.99 in 10.0 mi East 6.9 mph - N/A   Overcast
4:53 AM 57.0 °F 57.0 °F 100% 29.98 in 10.0 mi ESE 5.8 mph - N/A   Overcast
5:53 AM 57.0 °F 57.0 °F 100% 29.98 in 10.0 mi ESE 4.6 mph - N/A   Overcast
6:53 AM 57.9 °F 57.9 °F 100% 29.98 in 10.0 mi ESE 4.6 mph - N/A   Overcast
7:53 AM 57.9 °F 57.9 °F 100% 29.98 in 10.0 mi ESE 5.8 mph - N/A   Overcast
8:53 AM 59.0 °F 59.0 °F 100% 29.98 in 10.0 mi SE 5.8 mph - N/A   Overcast
9:53 AM 60.1 °F 60.1 °F 100% 29.97 in 10.0 mi SSE 5.8 mph - 0.00 in Rain Light Rain
10:53 AM 62.1 °F 62.1 °F 100% 29.96 in 10.0 mi South 6.9 mph - 0.15 in   Overcast
11:48 AM 64.4 °F 62.6 °F 94% 29.95 in 10.0 mi SSE 6.9 mph - 0.01 in Rain Light Rain
11:53 AM 64.0 °F 64.0 °F 100% 29.95 in 10.0 mi South 5.8 mph - 0.01 in Rain Light Rain
12:53 PM 66.0 °F 64.9 °F 96% 29.92 in 10.0 mi South 5.8 mph - 0.05 in   Overcast
1:53 PM 69.1 °F 66.0 °F 90% 29.90 in 10.0 mi SW 4.6 mph - N/A   Overcast
2:16 PM 68.0 °F 66.2 °F 94% 29.88 in 10.0 mi WSW 3.5 mph - N/A   Overcast
2:33 PM 68.0 °F 66.2 °F 94% 29.88 in 10.0 mi West 3.5 mph - N/A   Overcast
2:53 PM 69.1 °F 66.0 °F 90% 29.87 in 10.0 mi SW 3.5 mph - N/A   Overcast
3:53 PM 71.6 °F 66.2 °F 83% 29.86 in 10.0 mi SSW 4.6 mph - N/A   Overcast
4:53 PM 71.1 °F 66.9 °F 87% 29.84 in 10.0 mi Calm Calm - N/A   Overcast
5:53 PM 71.1 °F 66.9 °F 87% 29.84 in 10.0 mi South 3.5 mph - N/A   Overcast
6:53 PM 71.1 °F 66.9 °F 87% 29.85 in 10.0 mi Calm Calm - N/A   Overcast
7:11 PM 69.8 °F 66.2 °F 88% 29.85 in 10.0 mi Calm Calm - N/A   Overcast
7:53 PM 71.1 °F 68.0 °F 90% 29.86 in 10.0 mi South 8.1 mph - N/A   Overcast
8:53 PM 70.0 °F 66.9 °F 90% 29.86 in 10.0 mi SSE 8.1 mph - N/A   Overcast
9:53 PM 69.1 °F 68.0 °F 96% 29.87 in 10.0 mi South 6.9 mph - N/A   Overcast
10:24 PM 69.8 °F 68.0 °F 94% 29.88 in 10.0 mi South 9.2 mph - 0.00 in   Mostly Cloudy
10:53 PM 69.1 °F 68.0 °F 96% 29.86 in 10.0 mi SSE 8.1 mph - 0.00 in   Scattered Clouds
11:44 PM 69.8 °F 68.0 °F 94% 29.87 in 10.0 mi South 11.5 mph - 0.06 in Rain Heavy Rain
11:53 PM 69.1 °F 68.0 °F 96% 29.86 in 10.0 mi SSE 11.5 mph - 0.06 in Rain Light Rain